User: anonymous   Login
Location: Unspecified
(0.0000°N, 0.0000°E)
Time: 22:08:56
(UTC+00:00)
Language:

UFO F7 - Orbit

View from above orbital plane
View from above orbital plane
View from above satellite
View from above satellite

Ground track
Ground track

The orbit data is extracted from the following two-line orbital elements,

1 23967U 96042A   18217.50973081 0.00000000  00000-0  00000-0 0    03
2 23967   8.6961  29.7629 0007151  30.5738 329.4249  1.00154546    03
Epoch (UTC): 05 August 2018 12:14:00
Eccentricity: 0.0007151
inclination: 8.6961°
perigee height: 35789 km
apogee height: 35849 km
right ascension of ascending node: 29.7629°
argument of perigee: 30.5738°
revolutions per day: 1.00154546
mean anomaly at epoch: 329.4249°
orbit number at epoch: 0

The dashed part of the orbit path shows where the satellite is in the earth's shadow,  

DLR